Location: Newark
(37.3333°N, 6.0167°W)
Time: 18:47:19
(UTC+00:00)

Envisat - Visible Passes

Search period start: 20 October 2019 00:00
Search period end: 30 October 2019 00:00
Orbit: 764 x 766 km, 98.1° (Epoch: 20 October)

Date Brightness Start Highest point End Pass type
(mag) Time Alt. Az. Time Alt. Az. Time Alt. Az.
20 Oct 4.5 19:09:08 10° SSW 19:13:50 38° W 19:18:34 10° NNW visible
21 Oct 3.0 18:31:56 10° SSE 18:37:00 90° SSW 18:42:07 10° NNW visible
22 Oct 3.5 17:55:41 10° SE 18:00:22 39° ENE 18:05:04 10° N visible
22 Oct 5.5 19:35:40 10° SW 19:39:29 21° W 19:43:20 10° NW visible
23 Oct 6.2 06:07:49 10° NE 06:10:53 16° E 06:13:55 10° SE visible
23 Oct 4.0 18:57:38 10° S 19:02:31 49° W 19:07:27 10° NNW visible
24 Oct 2.9 18:20:43 10° SSE 18:25:45 71° ENE 18:30:50 10° N visible
24 Oct 6.2 20:03:38 10° WSW 20:05:14 11° W 20:06:51 10° WNW visible
25 Oct 5.1 19:23:52 10° SSW 19:28:09 27° W 19:32:27 10° NW visible
26 Oct 6.5 05:57:33 10° ENE 05:59:30 12° E 06:01:26 10° ESE visible
26 Oct 3.5 18:46:13 10° S 18:51:14 64° W 18:56:18 10° NNW visible
27 Oct 3.1 18:09:35 10° SSE 18:14:31 55° ENE 18:19:29 10° N visible
27 Oct 5.9 19:50:59 10° SW 19:53:51 15° W 19:56:44 10° WNW visible
28 Oct 4.6 19:12:13 10° SSW 19:16:49 35° W 19:21:27 10° NNW visible
29 Oct 3.1 18:34:54 10° S 18:39:58 82° WSW 18:45:05 10° NNW visible
